TimeCDT,TemperatureF,Dew PointF,Humidity,Sea Level PressureIn,VisibilityMPH,Wind Direction,Wind SpeedMPH,Gust SpeedMPH,PrecipitationIn,Events,Conditions,WindDirDegrees,DateUTC
12:15 AM,80.6,60.8,51,29.84,10.0,SSW,5.8,-,N/A,,Clear,200,2013-07-06 05:15:00
12:35 AM,80.6,60.8,51,29.84,10.0,SSW,5.8,-,N/A,,Clear,200,2013-07-06 05:35:00
12:55 AM,80.6,60.8,51,29.84,10.0,SSW,5.8,-,N/A,,Clear,200,2013-07-06 05:55:00
1:15 AM,80.6,60.8,51,29.84,10.0,Calm,Calm,-,N/A,,Clear,0,2013-07-06 06:15:00
1:35 AM,78.8,60.8,54,29.84,10.0,Calm,Calm,-,N/A,,Clear,0,2013-07-06 06:35:00
1:55 AM,78.8,60.8,54,29.84,10.0,Calm,Calm,-,N/A,,Clear,0,2013-07-06 06:55:00
2:15 AM,78.8,60.8,54,29.84,10.0,Calm,Calm,-,N/A,,Clear,0,2013-07-06 07:15:00
2:36 AM,77.0,60.8,57,29.84,10.0,SSE,4.6,-,N/A,,Clear,160,2013-07-06 07:36:00
2:55 AM,75.2,60.8,61,29.84,10.0,SSE,3.5,-,N/A,,Clear,160,2013-07-06 07:55:00
3:15 AM,75.2,60.8,61,29.83,10.0,South,3.5,-,N/A,,Clear,180,2013-07-06 08:15:00
3:36 AM,75.2,60.8,61,29.83,10.0,Calm,Calm,-,N/A,,Clear,0,2013-07-06 08:36:00
3:55 AM,75.2,60.8,61,29.83,10.0,Calm,Calm,-,N/A,,Clear,0,2013-07-06 08:55:00
4:15 AM,75.2,60.8,61,29.83,10.0,SSE,4.6,-,N/A,,Clear,160,2013-07-06 09:15:00
4:36 AM,75.2,59.0,57,29.84,10.0,SSE,3.5,-,N/A,,Clear,160,2013-07-06 09:36:00
4:55 AM,75.2,59.0,57,29.84,10.0,SSE,5.8,-,N/A,,Clear,150,2013-07-06 09:55:00
5:15 AM,73.4,59.0,61,29.85,10.0,SSE,4.6,-,N/A,,Clear,150,2013-07-06 10:15:00
5:36 AM,73.4,59.0,61,29.86,10.0,Calm,Calm,-,N/A,,Clear,0,2013-07-06 10:36:00
5:55 AM,73.4,59.0,61,29.86,10.0,South,4.6,-,N/A,Rain,Light Rain,170,2013-07-06 10:55:00
6:15 AM,71.6,60.8,69,29.86,5.0,South,4.6,-,0.04,Rain,Rain,190,2013-07-06 11:15:00
6:36 AM,71.6,62.6,73,29.87,7.0,South,5.8,-,0.08,Rain,Rain,180,2013-07-06 11:36:00
6:55 AM,71.6,62.6,73,29.87,5.0,Calm,Calm,-,0.12,Rain,Light Rain,0,2013-07-06 11:55:00
7:15 AM,69.8,64.4,83,29.87,5.0,Calm,Calm,-,0.04,Rain,Rain,0,2013-07-06 12:15:00
7:36 AM,69.8,64.4,83,29.88,4.0,SSE,4.6,-,0.11,Rain-Thunderstorm,Heavy Thunderstorms and Rain,160,2013-07-06 12:36:00
7:55 AM,71.6,64.4,78,29.87,7.0,ESE,5.8,-,0.24,Rain,Rain,110,2013-07-06 12:55:00
8:15 AM,71.6,66.2,83,29.86,5.0,SE,4.6,-,N/A,Rain-Thunderstorm,Light Thunderstorms and Rain,130,2013-07-06 13:15:00
8:36 AM,71.6,66.2,83,29.85,7.0,SE,8.1,-,N/A,,Clear,130,2013-07-06 13:36:00
8:55 AM,71.6,64.4,78,29.84,10.0,SE,8.1,-,N/A,,Clear,130,2013-07-06 13:55:00
9:15 AM,73.4,64.4,73,29.85,10.0,SSE,4.6,-,N/A,,Clear,150,2013-07-06 14:15:00
9:36 AM,75.2,64.4,69,29.85,10.0,SSE,6.9,-,N/A,,Clear,150,2013-07-06 14:36:00
9:55 AM,77.0,64.4,65,29.84,10.0,SSE,8.1,-,N/A,,Clear,150,2013-07-06 14:55:00
10:15 AM,78.8,62.6,57,29.83,10.0,SE,9.2,-,N/A,,Clear,140,2013-07-06 15:15:00
10:36 AM,80.6,62.6,54,29.83,10.0,SSE,10.4,17.3,N/A,,Clear,150,2013-07-06 15:36:00
10:55 AM,78.8,62.6,57,29.83,10.0,SSE,10.4,-,N/A,,Clear,150,2013-07-06 15:55:00
11:15 AM,78.8,62.6,57,29.83,10.0,SE,10.4,17.3,N/A,,Clear,140,2013-07-06 16:15:00
11:36 AM,80.6,62.6,54,29.83,10.0,SE,11.5,-,N/A,,Clear,140,2013-07-06 16:36:00
11:55 AM,80.6,64.4,58,29.83,10.0,SE,11.5,-,N/A,,Clear,140,2013-07-06 16:55:00
12:15 PM,80.6,62.6,54,29.83,10.0,SE,10.4,16.1,N/A,,Clear,140,2013-07-06 17:15:00
12:36 PM,80.6,62.6,54,29.83,10.0,SSE,9.2,-,N/A,,Clear,150,2013-07-06 17:36:00
12:55 PM,80.6,62.6,54,29.83,10.0,SSE,8.1,-,N/A,,Clear,150,2013-07-06 17:55:00
1:15 PM,80.6,64.4,58,29.83,10.0,SE,5.8,-,N/A,,Clear,140,2013-07-06 18:15:00
1:36 PM,80.6,66.2,61,29.83,10.0,SSE,4.6,-,N/A,Rain,Light Rain,150,2013-07-06 18:36:00
1:55 PM,80.6,66.2,61,29.83,10.0,SE,5.8,-,N/A,,Clear,140,2013-07-06 18:55:00
2:15 PM,80.6,66.2,61,29.83,10.0,ESE,4.6,-,N/A,,Clear,120,2013-07-06 19:15:00
2:36 PM,80.6,66.2,61,29.83,10.0,East,3.5,-,N/A,,Clear,100,2013-07-06 19:36:00
2:55 PM,80.6,66.2,61,29.83,10.0,Calm,Calm,-,N/A,,Clear,0,2013-07-06 19:55:00
3:15 PM,80.6,68.0,65,29.83,10.0,East,3.5,-,N/A,,Clear,90,2013-07-06 20:15:00
3:36 PM,82.4,66.2,58,29.83,10.0,East,3.5,-,N/A,,Clear,90,2013-07-06 20:36:00
3:55 PM,84.2,66.2,55,29.83,10.0,Calm,Calm,-,N/A,,Clear,0,2013-07-06 20:55:00
4:15 PM,84.2,68.0,58,29.83,10.0,Calm,Calm,-,N/A,,Clear,0,2013-07-06 21:15:00
4:36 PM,84.2,68.0,58,29.83,10.0,Calm,Calm,-,N/A,,Clear,0,2013-07-06 21:36:00
4:55 PM,84.2,68.0,58,29.82,10.0,East,3.5,-,N/A,,Clear,90,2013-07-06 21:55:00
5:15 PM,84.2,69.8,62,29.81,10.0,East,4.6,-,N/A,,Clear,90,2013-07-06 22:15:00
5:35 PM,82.4,69.8,66,29.81,10.0,East,3.5,-,N/A,,Clear,80,2013-07-06 22:35:00
5:55 PM,82.4,71.6,70,29.81,10.0,ENE,4.6,-,N/A,,Clear,70,2013-07-06 22:55:00
6:15 PM,82.4,71.6,70,29.81,10.0,NE,3.5,-,N/A,,Clear,50,2013-07-06 23:15:00
6:35 PM,82.4,71.6,70,29.80,10.0,ENE,3.5,-,N/A,,Clear,60,2013-07-06 23:35:00
6:56 PM,82.4,71.6,70,29.80,10.0,ENE,4.6,-,N/A,,Light Drizzle,60,2013-07-06 23:56:00
7:15 PM,82.4,71.6,70,29.80,10.0,ENE,6.9,-,N/A,,Clear,60,2013-07-07 00:15:00
7:35 PM,82.4,71.6,70,29.80,10.0,ENE,11.5,-,N/A,,Clear,70,2013-07-07 00:35:00
7:55 PM,82.4,71.6,70,29.80,10.0,East,8.1,-,N/A,,Clear,80,2013-07-07 00:55:00
8:15 PM,82.4,69.8,66,29.80,10.0,ESE,3.5,-,N/A,,Clear,110,2013-07-07 01:15:00
8:35 PM,80.6,71.6,74,29.80,10.0,Calm,Calm,-,N/A,,Clear,0,2013-07-07 01:35:00
8:55 PM,80.6,71.6,74,29.80,10.0,ESE,4.6,-,N/A,,Clear,110,2013-07-07 01:55:00
9:15 PM,80.6,71.6,74,29.81,7.0,Calm,Calm,-,N/A,Rain,Light Rain,0,2013-07-07 02:15:00
9:35 PM,80.6,71.6,74,29.82,10.0,Calm,Calm,-,N/A,Rain,Light Rain,0,2013-07-07 02:35:00
9:55 PM,80.6,69.8,70,29.83,10.0,Calm,Calm,-,N/A,,Clear,0,2013-07-07 02:55:00
10:15 PM,80.6,69.8,70,29.83,10.0,Calm,Calm,-,N/A,,Clear,0,2013-07-07 03:15:00
10:35 PM,80.6,68.0,65,29.83,10.0,Calm,Calm,-,N/A,,Clear,0,2013-07-07 03:35:00
10:55 PM,78.8,69.8,74,29.83,10.0,Calm,Calm,-,N/A,,Clear,0,2013-07-07 03:55:00
11:15 PM,77.0,69.8,78,29.83,7.0,Calm,Calm,-,N/A,,Clear,0,2013-07-07 04:15:00
11:35 PM,75.2,69.8,83,29.83,10.0,Calm,Calm,-,N/A,,Clear,0,2013-07-07 04:35:00
11:55 PM,75.2,68.0,78,29.83,10.0,Calm,Calm,-,N/A,,Clear,0,2013-07-07 04:55:00